Regional Weather Roundup
Issued by NWS Cleveland, OH

Home | Current Version | Previous Version | Text Only | Print | Product List | Glossary On
Versions: 1 2 3 4 5 6 7 8 9 10 11 12 13 14 15 16 17 18 19 20 21 22 23 24 25 26 27 28 29 30 31 32 33 34 35 36 37 38 39 40 41 42 43 44 45 46 47 48 49 50
000
ASUS41 KCLE 021710
RWRCLE
OHIO REGIONAL WEATHER ROUNDUP
NATIONAL WEATHER SERVICE CLEVELAND, OH
100 PM EDT THU OCT 02 2014

NOTE: "FAIR" INDICATES FEW OR NO CLOUDS BELOW 12,000 FEET WITH NO
SIGNIFICANT WEATHER AND/OR OBSTRUCTIONS TO VISIBILITY.

OHZ001>008-015>018-024>027-034-035-043-044-021800-
   NORTHWEST OHIO

CITY           SKY/WX    TMP DP  RH WIND       PRES   REMARKS
DEFIANCE       CLOUDY    74  57  55 S7        29.95F
FINDLAY        SUNNY     81  59  47 S14       29.95F
TOLEDO EXPRESS PTSUNNY   77  58  51 S6        29.95F
TOLEDO EXEC    MOSUNNY   78  59  51 S7        29.97F
LIMA           MOSUNNY   81  56  42 S12       29.96F
$$

OHZ009>014-019>023-028>033-038-089-021800-
   NORTHEAST OHIO

CITY           SKY/WX    TMP DP  RH WIND       PRES   REMARKS
CLE-HOPKINS    PTSUNNY   71  56  58 S10       30.04F
CLE-LAKEFRONT  MOSUNNY   70  54  56 S14       30.02F
CUY CO. ARPT   PTSUNNY   70  55  60 S14       30.04F
LORAIN-ELYRIA  MOSUNNY   75  58  55 S12       30.02F
ASHTABULA      MOSUNNY   67  55  65 S14G20    30.07S
AKRON-CANTON   PTSUNNY   70  52  52 SE10      30.06F
WOOSTER        MOSUNNY   74  56  53 S9        30.05F
MANSFIELD      MOSUNNY   76  59  55 S15       30.02F
YOUNGSTOWN     PTSUNNY   67  56  67 S9        30.07F
$$

OHZ042-051>053-060>062-070>072-077>081-021800-
  SOUTHWEST OHIO

CITY           SKY/WX    TMP DP  RH WIND       PRES   REMARKS
CINC-COVINGTON MOSUNNY   83  58  42 S15G21    29.99F
CINC-LUNKEN    MOSUNNY   84  62  47 S10       29.98F
HAMILTON       PTSUNNY   80  61  52 S5        29.99F
DAYTON         PTSUNNY   79  59  50 S14       30.00S
WRIGHT-PAT AFB PTSUNNY   79  61  53 S10       29.98F
DAYTON GENERAL PTSUNNY   78  62  57 S10       29.99F
WILMINGTON     MOSUNNY   83  56  39 S16       30.00F
$$

OHZ036-037-039>041-045>050-054>059-063>069-073>076-082>088-021800-
  CENTRAL AND SOUTHEAST OHIO

CITY           SKY/WX    TMP DP  RH WIND       PRES   REMARKS
COLUMBUS       MOSUNNY   79  57  46 S8        30.01F
OSU AIRPORT    SUNNY     76  58  53 S10       30.01F
BOLTON FIELD   SUNNY     79  61  53 S13       30.02F
RICKENBACK AFB MOSUNNY   80  57  45 S10G18    30.01F
NEWARK         SUNNY     79  58  48 S8        30.02F
MARION         MOSUNNY   78  58  49 S14       29.99F
LANCASTER      SUNNY     80  58  46 S9        30.03F
ZANESVILLE     SUNNY     76  59  55 S8        30.05F
NEW PHILLY     MOSUNNY   72  58  61 VRB6      30.06F
$$



USA.gov is the U.S. government's official web portal to all federal, state and local government web resources and services.